Theta_e
304 303 303 302 302 302 302 302 303 303 303 302 302 302 302 302 303 304 304 305 305 305 305 305 305 305 304 305 305 306 305 306 305 305 307 307 308 311 311 311 313 313 313 311 308 308 308 310 311 311 312 312 311 312 312 313 313 313 314 314 313 316 315 315 317 316 315 316 317 317 317 318 318 320 322 323 324 323 323 324 325 327 330 330 330 331 332 331
304 303 303 302 302 302 302 303 303 303 303 302 302 302 302 302 303 304 305 305 305 305 305 305 305 305 304 305 305 305 306 305 305 305 307 307 308 312 313 312 313 312 312 310 309 307 308 311 312 311 312 312 311 311 312 312 313 313 316 315 314 317 316 314 316 315 315 315 316 316 316 317 318 319 321 323 323 324 324 324 326 327 328 328 328 330 330 329
304 303 303 302 302 302 302 302 303 303 303 303 302 302 303 303 303 304 305 305 304 305 304 305 304 304 304 305 305 305 304 305 306 308 309 309 310 312 313 312 312 312 312 311 310 308 308 311 311 310 311 311 311 311 311 312 313 314 314 315 315 316 314 314 315 315 315 315 315 315 316 317 317 318 320 322 323 324 325 325 325 325 325 325 327 328 328 327
304 303 303 302 302 302 302 302 303 303 303 303 303 302 303 303 304 304 304 304 304 304 304 304 304 304 304 304 304 304 305 310 313 314 313 312 312 312 312 311 312 313 313 311 309 308 309 310 310 310 311 311 311 311 310 311 313 313 314 315 315 313 314 315 315 316 316 316 315 315 316 317 317 318 320 321 323 324 324 325 325 325 325 325 325 325 325 324
303 303 303 302 302 302 302 302 303 304 303 303 303 302 302 303 303 304 304 304 304 304 304 304 304 304 304 304 304 304 308 315 317 315 314 313 312 312 312 313 314 314 313 311 309 308 309 310 311 311 312 311 310 310 311 311 312 313 314 314 313 313 314 314 315 315 316 316 315 315 316 316 316 317 317 320 323 323 324 325 326 326 326 325 324 324 323 323
303 303 303 303 302 302 302 302 303 304 304 303 303 302 302 302 303 303 303 304 304 304 304 303 303 304 304 304 304 305 309 315 315 313 313 313 312 311 310 311 312 312 311 309 308 308 310 311 312 312 311 311 310 311 311 312 312 313 313 312 313 313 313 314 316 316 316 316 315 316 316 316 315 316 316 318 319 322 324 324 324 325 326 326 325 325 323 322
304 303 303 303 302 302 303 304 305 305 305 304 304 303 302 302 302 303 303 303 303 303 303 304 304 305 305 305 305 307 310 315 317 315 312 312 311 308 308 308 308 308 307 307 308 310 312 312 312 312 311 311 311 310 311 312 312 313 313 312 313 313 313 314 315 316 317 316 315 316 316 316 315 315 316 317 317 319 323 324 324 325 325 325 325 325 322 320
304 303 303 303 304 306 308 309 309 308 306 305 304 304 303 303 303 303 303 303 303 303 304 305 305 305 305 306 306 310 312 316 319 317 313 311 309 308 308 308 308 307 306 308 311 312 312 312 313 312 311 312 312 312 312 312 312 313 312 312 313 314 313 314 315 316 316 315 315 316 317 315 315 316 315 317 319 317 321 324 325 324 324 325 324 323 320 319
304 304 306 308 310 312 312 312 312 311 310 307 306 304 304 303 303 303 303 304 304 305 305 305 305 305 306 306 308 314 316 315 317 315 313 310 308 309 309 309 308 307 308 310 313 313 313 313 314 314 312 312 312 313 312 313 313 313 312 313 313 314 314 315 316 316 316 315 315 316 317 315 315 316 315 317 321 319 322 324 324 324 324 323 321 320 320 321
307 310 312 313 313 313 312 312 313 313 312 310 308 305 304 303 304 304 304 305 305 305 305 305 305 305 306 306 310 318 318 313 314 312 311 309 309 310 310 310 309 309 311 312 313 314 315 315 315 314 313 313 312 313 312 312 314 313 312 313 314 314 314 315 315 315 315 315 315 315 317 316 314 316 315 317 322 322 323 324 323 324 321 318 317 319 320 321
312 314 313 313 312 312 312 312 312 312 312 311 310 308 306 304 303 303 304 304 304 304 305 305 305 305 307 307 309 317 316 312 313 311 310 309 311 312 312 313 313 313 314 314 315 314 314 313 314 314 313 313 313 313 312 311 313 313 313 313 313 314 314 315 314 314 315 315 314 315 315 315 315 316 315 318 321 322 323 323 322 322 319 315 317 319 321 321
315 313 313 312 312 311 311 311 311 312 311 310 310 309 306 304 304 303 304 304 304 304 305 305 305 305 307 307 310 316 315 312 313 311 310 311 313 314 314 314 314 314 314 315 314 313 313 313 313 313 313 313 313 313 313 313 313 313 314 315 315 317 316 315 314 314 315 315 315 314 315 318 318 315 315 317 321 322 322 322 321 320 318 316 317 319 321 321
315 313 313 313 312 311 311 311 311 312 311 310 310 308 306 304 303 303 304 305 305 304 305 305 306 306 307 308 313 317 315 314 313 312 312 311 313 314 312 312 312 312 312 313 313 312 313 313 313 314 314 313 313 313 313 313 313 314 314 315 317 318 318 316 314 315 315 315 315 313 315 321 321 314 313 315 317 320 320 319 320 319 319 317 318 319 321 322
315 314 314 313 312 312 311 311 312 312 311 311 310 309 308 305 303 304 304 305 305 305 305 305 305 306 307 310 316 316 314 315 315 313 312 312 312 312 311 312 311 311 312 312 312 313 313 314 313 313 314 313 313 313 314 312 314 315 312 317 318 314 319 318 312 314 315 314 314 314 315 319 320 314 314 314 315 318 318 318 319 319 319 319 319 320 321 322
315 314 314 314 313 312 312 311 312 313 313 313 313 311 310 308 305 303 304 305 304 305 305 306 308 309 308 311 316 317 314 315 315 313 312 312 312 311 312 312 311 312 312 312 313 313 313 313 314 314 314 314 313 313 313 313 316 316 312 321 324 313 316 318 312 314 315 313 313 313 315 316 316 315 314 313 313 316 316 316 318 318 319 319 319 320 321 322
314 315 314 313 313 313 312 312 312 313 314 314 315 314 312 310 308 305 304 305 305 305 305 307 312 313 312 313 316 317 316 314 314 313 312 312 312 311 311 311 312 312 312 313 313 313 313 314 313 313 312 312 314 315 315 318 323 322 316 319 323 315 314 316 313 313 313 314 312 312 318 318 316 315 314 314 314 315 315 314 317 318 319 319 319 320 321 321
312 314 314 313 312 313 312 312 312 312 314 314 315 318 317 313 310 308 305 303 305 305 305 309 313 314 314 314 315 316 316 315 314 313 313 313 312 312 311 311 311 311 313 313 313 313 313 313 313 313 317 318 318 318 318 319 323 326 323 321 320 316 313 315 315 313 311 314 313 312 318 319 319 316 313 313 313 314 314 313 316 318 318 319 320 321 322 321
309 311 312 312 311 311 311 311 311 311 313 315 315 318 321 318 314 311 308 306 304 305 308 310 311 314 316 314 314 315 315 315 313 313 313 313 312 311 312 312 311 312 312 312 313 314 313 313 314 317 326 328 322 319 319 320 319 322 326 324 322 319 316 315 315 313 312 313 315 313 315 317 319 317 313 312 313 312 314 313 315 318 318 319 321 322 321 321
308 309 310 311 311 310 310 309 309 311 313 316 315 317 321 321 317 314 312 310 307 310 315 313 312 316 316 314 315 315 315 315 313 313 313 313 312 312 312 312 312 312 311 314 315 313 312 313 315 316 322 326 324 319 319 321 319 320 322 321 318 317 317 317 315 316 314 312 315 315 314 316 318 320 317 313 314 314 313 314 314 316 318 318 320 322 321 320
306 307 308 309 309 309 309 308 309 312 314 315 315 317 318 317 319 318 314 313 312 314 318 315 314 316 316 316 315 314 315 314 313 314 313 313 312 312 312 311 312 313 313 317 318 314 313 314 317 318 320 326 329 326 324 325 325 324 323 319 316 315 316 316 315 318 318 312 315 317 316 316 316 322 321 313 314 314 312 314 314 315 317 317 319 321 321 321
305 306 306 307 308 308 308 308 310 313 314 315 315 317 317 314 316 317 314 315 315 315 316 316 316 315 317 318 315 314 315 314 314 314 313 312 312 311 312 312 312 315 316 316 316 316 313 314 319 323 325 329 332 333 330 325 326 327 323 318 316 317 316 316 320 321 320 317 317 319 319 319 322 325 320 314 315 316 313 313 313 314 316 316 318 320 321 321
306 305 306 306 306 307 308 308 311 313 313 315 315 316 316 314 314 314 314 315 316 315 315 316 316 316 317 317 316 316 315 314 313 313 313 312 312 311 311 312 312 316 319 314 314 317 316 316 321 324 325 326 327 332 332 326 328 328 324 320 318 319 316 321 331 327 324 323 321 322 321 323 328 326 319 315 315 316 314 314 314 314 316 316 317 319 321 321
306 306 305 306 307 308 310 310 312 314 314 315 316 315 314 314 315 314 314 315 315 314 315 316 317 317 317 316 316 316 315 315 314 314 313 311 312 311 311 312 312 314 316 315 317 318 318 320 320 319 322 327 325 328 334 333 330 327 321 319 320 319 316 321 329 329 327 323 320 320 321 328 332 326 322 317 313 314 315 315 315 314 315 316 316 318 320 321
306 306 306 308 311 312 312 313 314 314 314 314 314 313 313 315 316 315 314 316 317 315 315 317 318 317 318 316 315 316 314 315 315 314 314 312 312 311 310 312 311 312 312 315 319 318 318 319 318 319 324 329 322 323 335 332 326 330 325 319 319 320 319 319 322 330 335 331 325 321 322 337 340 326 324 320 313 314 315 314 315 314 315 315 316 317 319 321
306 305 306 308 313 315 314 314 314 313 312 313 313 312 313 315 315 314 315 320 323 322 317 317 318 317 316 315 315 315 314 314 315 314 314 313 312 312 312 311 311 313 313 313 316 317 316 315 317 322 325 325 321 322 333 330 323 329 332 325 323 323 322 321 321 328 331 329 329 321 319 338 343 326 323 322 318 317 315 313 314 314 315 315 316 316 317 319
305 306 306 306 309 311 311 312 312 312 312 312 312 312 313 314 313 314 319 327 330 326 318 316 316 315 315 315 315 314 315 315 314 314 314 312 312 312 312 312 312 313 315 314 315 318 318 316 319 324 323 322 323 320 324 329 323 321 330 332 327 323 323 322 320 321 323 322 324 321 317 328 333 324 322 321 319 320 317 315 314 313 314 315 315 317 316 318
305 306 306 306 307 307 308 309 311 313 313 312 313 313 312 312 313 315 323 330 330 322 316 315 313 314 315 315 315 315 316 315 313 313 313 313 313 311 312 316 312 311 314 314 316 319 319 319 319 323 322 320 323 321 323 330 324 321 331 331 324 321 319 321 321 320 322 320 322 326 319 319 323 323 322 318 317 320 319 319 317 313 313 315 315 317 317 317
305 305 306 308 310 310 309 309 310 313 314 314 313 312 310 311 315 320 326 328 325 317 315 314 312 314 314 314 314 314 315 314 312 312 313 312 312 311 312 313 312 312 313 311 314 319 320 320 321 323 321 318 323 328 329 327 320 325 335 327 319 319 319 323 323 320 322 318 320 328 322 317 324 326 322 317 315 318 319 319 319 314 312 315 315 316 317 317
304 305 306 308 313 315 313 313 314 314 314 315 312 311 314 315 318 325 327 325 319 315 315 313 313 313 313 313 313 313 313 313 313 313 313 312 312 312 312 312 311 311 311 311 315 319 319 318 322 323 321 322 327 328 328 324 319 326 330 320 318 321 321 324 321 321 327 320 316 324 321 316 322 324 319 316 316 319 321 321 319 314 312 315 315 315 316 317
304 305 306 307 312 316 316 317 316 313 312 311 308 311 316 319 325 328 326 323 319 315 313 313 313 313 312 312 312 313 312 312 314 312 311 312 312 311 311 311 310 312 318 319 317 317 315 313 317 319 319 323 325 321 319 320 319 320 320 316 319 323 324 328 326 326 327 322 315 318 320 317 317 322 322 319 318 319 319 320 318 314 312 314 315 315 316 316
304 305 305 306 308 311 312 313 312 310 309 308 308 312 318 324 330 328 324 322 319 317 314 312 314 313 313 313 313 313 312 312 313 312 312 311 311 311 310 312 311 316 326 325 316 317 316 313 315 317 316 317 317 316 314 313 315 317 318 317 319 322 326 330 330 325 321 321 319 316 318 317 315 320 320 318 319 317 315 318 320 317 313 313 315 315 315 316
304 304 307 307 306 308 308 308 309 309 309 311 312 317 324 328 328 327 327 321 316 318 316 312 313 313 313 313 313 313 313 312 313 312 312 311 312 313 311 315 316 314 320 322 317 318 319 316 315 314 315 314 313 315 314 313 315 316 318 320 318 318 322 325 325 322 318 319 320 317 316 318 316 316 316 316 318 317 315 315 317 317 314 314 316 315 316 316
307 309 311 311 310 311 310 309 309 309 312 315 316 321 328 327 325 327 329 320 313 315 313 310 311 311 312 313 314 313 312 313 312 312 313 311 312 313 311 315 318 314 317 320 318 317 320 321 318 313 315 315 313 315 315 316 316 314 317 321 320 316 316 319 320 318 316 319 326 323 316 320 321 319 320 320 318 316 313 312 313 314 314 315 316 315 316 316
312 314 316 315 314 314 311 310 311 312 314 315 319 327 329 325 325 327 323 316 312 312 309 309 310 311 311 311 313 313 313 315 314 312 313 312 311 314 313 311 312 314 315 316 317 317 317 322 322 316 316 315 313 314 315 318 319 316 316 316 319 321 320 319 317 317 317 320 328 323 317 325 327 325 325 319 314 314 313 313 313 312 314 315 315 314 315 316
316 316 317 317 317 315 313 311 310 313 314 315 324 332 328 324 327 324 317 314 312 310 309 309 310 312 312 312 313 312 311 313 315 314 314 314 315 319 318 313 311 313 314 315 320 318 312 316 321 316 314 313 311 312 312 314 317 317 314 312 315 321 324 320 317 322 322 320 324 321 322 329 326 323 324 314 311 314 312 314 314 312 315 314 314 314 313 315
315 316 318 319 316 314 315 312 310 312 314 320 329 332 330 327 324 318 314 313 311 309 310 311 312 312 313 316 316 311 310 312 314 316 316 316 318 319 317 316 313 311 314 317 321 318 313 318 320 313 312 313 311 312 311 310 316 318 314 314 315 314 317 317 317 322 319 315 321 320 321 327 321 318 321 314 314 317 313 314 313 312 315 314 313 314 313 314
316 316 316 318 315 314 317 314 311 312 316 324 330 330 329 325 317 314 313 311 310 310 310 311 314 312 310 315 317 310 310 314 313 314 317 317 317 315 313 314 314 312 313 315 317 319 319 323 322 314 312 312 310 312 313 310 315 317 314 317 318 316 318 317 316 320 317 316 323 321 320 325 320 317 320 316 316 317 315 314 312 311 313 313 313 314 314 314
318 317 317 318 317 316 316 313 310 312 319 327 329 327 326 320 312 312 312 310 310 311 311 312 313 312 309 312 315 311 309 313 312 311 315 316 315 315 313 312 313 313 312 313 315 317 319 322 322 317 312 312 312 314 316 314 311 312 312 314 317 320 322 317 314 317 316 315 323 324 319 320 320 319 318 315 315 317 316 314 313 312 312 311 312 312 312 312
314 317 318 318 316 314 311 308 308 313 323 329 329 326 323 317 312 310 310 310 311 312 313 311 311 313 311 311 313 311 309 311 311 311 314 315 313 314 313 311 313 312 311 313 316 319 321 319 322 322 314 312 317 318 315 315 312 311 311 312 314 319 319 315 315 318 318 316 320 322 318 320 324 323 317 313 314 316 315 315 315 312 310 310 310 309 310 309
311 316 318 313 311 310 309 308 311 318 326 329 327 325 318 312 311 310 311 311 311 312 313 311 310 312 313 312 312 311 310 309 309 310 313 313 312 314 313 312 313 311 311 314 317 321 321 316 322 328 318 313 319 317 312 313 313 313 314 314 315 316 315 314 315 317 318 320 322 320 318 323 327 323 317 314 314 315 315 315 314 310 309 309 308 309 309 309
312 319 319 310 309 311 310 312 315 321 327 324 320 317 313 310 311 310 309 310 310 311 312 312 311 311 312 313 312 311 309 309 309 309 311 310 310 314 315 312 312 312 316 321 320 320 318 317 324 327 318 316 319 315 311 311 312 312 313 313 312 313 313 312 315 318 320 322 323 320 320 324 324 321 320 316 314 314 312 311 311 309 308 308 309 309 309 309
311 318 317 310 311 310 309 315 316 316 321 316 311 311 310 309 309 308 308 310 310 310 310 311 310 310 311 311 310 309 308 309 310 309 310 309 309 313 314 312 311 312 317 321 318 317 320 322 323 321 317 316 314 311 310 309 312 312 311 313 313 313 312 310 314 321 320 318 320 318 318 322 321 320 320 315 312 311 309 308 309 308 308 309 309 309 309 309
310 313 313 311 311 309 309 317 318 316 315 311 308 309 309 308 308 308 308 309 309 309 310 310 309 310 311 309 308 308 308 310 310 309 310 309 307 311 312 311 311 311 314 318 316 316 319 321 320 319 320 317 314 315 314 312 313 313 312 313 311 311 311 310 313 318 316 316 318 315 316 322 323 318 314 310 308 309 308 308 308 308 309 309 308 309 308 308
310 312 313 311 311 309 310 313 314 315 315 310 308 309 308 308 308 308 308 309 309 310 310 310 309 308 308 308 307 307 307 309 311 310 310 309 308 310 310 310 311 310 311 317 317 313 315 319 318 316 318 318 316 319 319 319 317 312 310 312 309 306 308 311 316 317 316 318 319 317 320 325 322 315 310 308 308 309 308 307 308 308 308 308 307 308 307 307
310 311 312 310 309 309 310 309 309 311 313 310 310 311 308 308 308 308 309 308 308 309 309 309 308 307 308 308 308 308 307 308 310 310 309 309 309 310 309 310 311 311 312 315 315 313 315 320 318 316 315 315 315 318 318 317 314 309 307 308 307 306 308 312 314 314 316 317 315 316 320 320 315 312 311 310 309 309 308 306 307 307 307 308 308 308 308 308
311 312 311 310 309 308 308 307 307 309 311 310 312 313 309 308 309 308 308 309 308 308 308 309 308 308 310 309 310 310 308 307 309 309 309 309 311 310 309 310 312 313 315 314 312 314 316 317 319 320 317 314 315 318 316 311 309 309 308 307 306 308 311 313 311 310 316 317 313 314 316 314 312 311 310 310 310 312 311 306 305 307 307 308 308 308 309 309
311 312 309 308 308 308 308 307 306 308 309 309 312 312 310 310 309 309 309 309 308 307 308 309 308 307 309 309 310 309 309 310 310 310 311 310 310 309 308 310 312 313 315 312 311 314 314 312 316 318 315 312 313 314 312 309 307 307 308 306 307 309 310 310 310 311 315 313 310 315 315 311 310 310 309 309 310 312 309 305 305 308 308 308 308 308 309 308
309 309 307 306 308 309 310 308 307 307 308 309 312 312 310 311 311 311 310 309 308 307 309 310 307 305 306 308 309 308 309 313 313 312 312 310 309 310 310 311 311 309 311 311 310 312 311 311 315 314 312 312 310 309 308 308 306 306 307 308 308 309 308 308 309 312 313 310 310 313 311 310 310 309 308 307 307 307 306 305 307 308 307 308 308 308 308 308
307 307 307 306 308 308 308 308 307 308 310 311 314 313 311 311 312 311 308 308 309 308 307 308 307 304 304 306 309 309 309 312 312 311 310 308 308 310 310 312 311 308 307 310 311 310 310 315 317 311 309 310 308 308 309 307 307 307 307 308 308 308 310 310 310 312 311 310 312 311 309 310 310 307 306 306 305 306 306 307 307 307 307 307 307 307 308 307
305 306 305 306 308 307 307 308 306 308 310 309 310 311 309 308 309 307 306 307 308 307 306 306 306 305 304 306 309 309 307 307 308 307 307 306 308 309 309 311 310 306 306 309 311 309 309 316 318 310 308 311 309 309 309 307 308 308 306 307 307 308 310 309 309 310 308 309 311 308 308 312 309 305 305 306 307 308 307 307 307 307 307 307 306 307 308 307
303 305 305 307 310 310 308 307 305 309 312 308 307 309 307 306 306 306 307 307 305 305 306 306 306 306 306 307 308 306 304 304 305 305 304 304 306 307 307 308 307 306 307 309 310 309 309 314 316 309 309 312 310 308 309 308 308 307 305 306 307 308 310 308 308 308 306 306 308 306 310 315 310 305 306 307 306 307 306 306 307 307 306 306 306 307 307 307
301 304 304 306 309 308 306 306 306 308 309 307 306 307 305 304 303 305 308 308 304 305 306 305 305 307 307 308 307 304 303 303 303 303 303 303 304 303 303 305 304 305 308 308 308 311 311 311 312 310 310 312 310 307 309 310 308 308 311 313 311 308 309 308 307 308 306 307 309 311 314 314 308 306 310 309 306 305 306 306 306 306 306 306 306 306 306 306
Wind_Speed
12 11 8 7 7 8 8 9 8 8 7 6 5 3 2 2 3 4 4 5 6 5 4 4 3 3 4 6 8 8 8 9 9 13 14 8 11 12 12 12 9 7 5 4 2 2 6 9 8 7 4 3 4 5 4 5 6 4 1 2 3 4 5 4 3 4 6 9 9 4 10 13 10 17 23 21 22 24 18 15 17 14 22 30 28 34 34 30
11 11 8 7 7 8 8 8 8 8 8 7 5 4 2 1 1 2 3 5 5 4 3 3 2 3 4 6 8 9 9 9 11 13 8 7 13 13 12 12 9 6 5 3 2 2 6 8 6 3 4 5 4 5 5 4 4 4 2 2 4 5 4 3 3 8 6 10 10 2 3 10 13 13 19 14 13 22 17 14 24 26 25 28 33 35 31 31
11 10 8 6 6 7 8 9 9 9 8 8 6 4 3 2 1 1 2 3 4 3 2 1 1 3 5 6 8 9 8 9 10 7 2 5 10 9 10 12 9 5 3 3 3 4 6 7 4 4 7 7 8 7 6 4 4 5 4 2 5 4 3 3 6 10 8 8 8 2 3 9 12 13 18 13 12 18 14 15 22 27 30 32 36 34 32 31
10 9 7 5 6 7 8 8 9 9 8 8 6 5 3 3 3 3 3 3 3 2 2 1 1 3 5 6 7 6 7 7 5 1 1 3 5 5 7 8 6 5 5 5 5 6 7 7 4 6 7 8 11 8 6 7 5 3 5 5 5 3 3 9 11 13 10 13 11 8 7 7 9 14 21 17 11 7 14 27 29 32 37 38 38 36 34 31
9 8 7 5 5 7 7 8 8 9 8 8 7 4 3 3 3 3 3 3 3 2 1 1 2 3 4 5 5 5 5 3 1 2 2 2 3 3 4 4 5 6 8 8 8 9 9 7 5 6 5 7 7 4 6 12 10 3 5 9 10 8 5 13 16 14 9 11 13 12 9 2 5 11 19 18 9 7 18 32 37 40 42 41 40 37 34 31
8 8 7 5 5 6 7 8 9 9 9 8 7 5 3 2 2 3 3 3 3 2 1 1 1 2 3 4 4 4 3 1 1 2 2 1 1 2 3 3 5 7 9 9 9 10 9 7 5 6 3 4 4 5 8 12 11 4 8 11 14 14 8 10 9 7 6 7 10 8 8 3 4 7 11 12 9 18 28 33 35 39 41 42 41 37 34 30
8 8 7 6 6 7 8 9 9 9 9 8 7 6 3 2 1 2 3 3 3 2 2 1 0 1 2 4 4 4 7 6 4 3 0 1 2 1 2 3 5 8 8 9 12 12 9 8 7 6 2 4 5 7 11 11 10 7 8 11 15 19 14 13 8 3 3 8 8 5 8 7 5 4 6 7 9 21 29 31 34 38 40 41 39 35 32 29
8 8 8 8 8 9 9 9 9 9 9 8 7 6 4 2 1 1 2 3 3 3 2 1 1 0 1 3 4 5 9 7 3 2 2 2 2 2 5 5 6 7 9 13 15 11 7 8 8 6 2 5 6 7 9 7 7 8 9 12 14 16 15 14 9 4 1 6 7 4 5 6 7 7 6 5 10 20 27 30 32 37 38 38 35 32 30 29
9 9 9 9 9 9 9 10 10 10 9 8 7 6 5 3 2 1 1 2 3 3 2 1 1 0 1 2 5 6 5 3 4 3 2 1 2 6 6 6 7 9 13 15 13 9 6 5 7 7 4 9 10 8 7 5 5 8 15 16 10 8 10 12 9 6 3 3 6 5 4 6 8 10 6 4 17 25 30 35 35 37 36 33 30 29 30 29
10 10 10 10 10 10 10 10 10 9 9 8 7 6 5 4 3 1 1 1 2 2 1 1 1 1 2 3 3 3 2 5 6 7 1 4 7 8 7 7 8 10 13 12 10 8 6 7 10 11 11 11 8 6 7 5 5 11 17 18 8 6 11 11 9 8 6 2 4 4 3 6 6 6 3 7 24 30 34 38 37 35 32 30 29 30 31 28
9 9 9 9 10 10 10 11 10 10 9 8 7 6 6 5 3 2 1 1 1 2 2 2 2 2 3 4 4 3 2 5 5 9 3 8 10 9 8 7 5 4 4 6 7 7 10 12 13 12 10 7 5 8 8 4 10 18 12 11 4 1 5 8 9 9 6 1 2 4 1 6 7 4 8 16 27 33 35 36 35 33 31 30 30 32 31 29
8 8 9 9 10 11 11 12 11 10 10 9 8 7 6 4 3 2 1 1 2 2 2 2 2 2 3 8 9 4 2 1 3 6 3 7 8 6 3 1 3 5 7 7 8 8 11 12 11 9 7 3 5 6 8 12 17 16 4 4 3 6 2 4 5 8 6 3 6 4 4 6 6 2 11 20 28 33 36 35 34 33 33 33 33 34 31 30
7 7 8 9 10 11 12 12 11 10 9 10 9 9 7 5 3 1 1 1 1 2 2 1 2 3 5 9 6 1 2 4 4 2 0 2 4 3 1 2 6 8 9 11 10 9 10 12 11 11 8 5 3 4 11 18 16 10 2 1 2 7 4 5 4 6 6 4 10 8 1 6 6 10 8 11 23 30 32 33 33 32 33 33 34 34 32 32
5 6 7 8 8 9 11 12 11 9 9 10 9 9 9 7 3 0 1 1 1 1 1 1 3 4 7 7 3 3 6 5 7 9 5 3 3 2 2 1 3 6 9 11 10 10 12 11 10 10 8 5 6 9 12 11 7 4 4 3 3 3 5 6 3 6 4 5 14 12 2 8 6 12 12 4 16 26 27 29 30 30 32 33 34 35 34 34
4 5 6 7 7 8 9 11 11 10 9 9 9 8 8 7 4 1 1 1 1 1 1 2 4 5 9 8 4 5 6 7 10 10 8 6 5 3 2 2 1 2 6 9 9 10 11 10 8 7 7 7 7 8 6 4 4 3 1 3 3 1 5 7 2 8 7 3 11 11 2 7 6 8 10 7 10 24 25 26 30 31 33 33 34 35 35 34
3 3 5 6 6 6 7 8 9 9 9 9 10 9 6 6 5 2 1 0 1 2 2 1 2 3 6 6 4 6 8 9 9 8 9 10 10 6 3 4 4 3 5 6 8 8 8 8 7 6 6 6 3 3 5 5 5 4 1 3 3 1 4 6 5 9 10 4 5 9 4 2 5 6 7 8 13 27 24 23 29 31 32 34 34 34 35 35
2 2 3 5 5 6 6 6 7 8 8 9 10 10 6 4 4 3 1 1 0 2 3 1 2 5 6 5 4 6 8 6 6 10 12 11 11 9 7 10 9 8 7 7 8 9 8 6 3 4 4 2 2 4 5 4 3 4 3 1 3 2 2 3 7 7 9 9 6 8 6 4 5 6 6 7 18 30 25 23 28 30 31 33 33 33 35 37
2 2 2 3 4 5 5 5 5 6 8 9 11 10 6 4 3 3 3 2 1 1 3 4 3 4 5 5 3 4 5 5 5 9 10 9 10 9 11 12 10 11 10 8 9 7 6 4 0 1 3 4 3 6 3 3 3 2 1 2 3 2 1 3 6 5 8 11 8 7 6 7 7 6 3 5 14 20 18 18 23 29 32 32 32 34 36 38
2 1 1 2 3 4 5 5 3 4 6 9 12 11 7 6 3 2 4 4 3 2 1 5 5 2 4 7 7 6 3 6 4 5 8 8 10 10 10 10 10 9 6 3 5 4 3 2 2 1 2 3 2 4 6 6 6 4 3 3 1 2 2 5 5 4 4 7 6 7 7 7 7 7 4 4 6 10 14 16 19 28 34 33 33 35 36 39
2 2 2 2 3 4 4 4 2 2 5 8 11 10 7 7 3 1 6 9 10 9 10 11 12 14 15 13 8 1 4 8 5 6 7 7 10 10 10 9 7 4 3 3 3 3 3 2 2 4 6 6 6 6 7 5 5 4 2 2 0 1 3 6 4 6 2 4 1 2 3 6 6 6 7 7 4 5 11 15 17 24 31 34 34 35 38 40
3 3 2 2 3 4 4 3 2 2 5 9 11 9 7 7 3 3 9 12 14 14 16 17 17 20 19 14 7 4 3 5 5 7 6 7 9 7 7 8 3 2 4 4 2 2 2 2 6 9 10 9 6 4 6 4 3 4 4 2 3 1 3 6 3 6 3 5 1 3 3 5 6 5 8 7 4 6 11 15 16 19 27 32 34 37 39 39
4 3 3 2 2 2 2 2 2 3 6 8 9 8 7 6 2 7 9 10 16 15 14 15 17 19 18 14 10 11 10 5 5 7 6 8 11 7 5 5 3 3 3 1 1 2 0 4 10 11 8 5 4 2 5 5 5 4 4 3 3 2 2 6 5 7 5 5 2 2 4 5 8 6 6 6 6 9 13 18 20 19 24 30 33 35 38 38
3 3 3 2 1 1 1 2 2 5 7 8 8 8 6 4 3 10 9 7 13 15 13 14 17 17 15 12 9 12 14 7 6 9 8 10 12 11 7 4 3 3 2 1 4 2 2 7 12 9 5 6 4 1 5 5 3 3 3 3 3 3 1 2 5 7 6 2 1 1 2 4 6 6 5 8 10 9 12 17 21 20 20 28 34 36 38 37
3 3 3 3 2 2 1 1 2 5 7 7 9 8 7 5 7 13 9 5 7 10 10 12 14 15 16 13 9 11 13 9 9 8 10 14 13 10 7 5 3 2 3 4 7 6 6 11 8 3 6 8 6 2 5 4 2 2 2 3 3 4 2 4 4 5 6 5 1 5 5 5 3 4 6 6 4 5 10 15 21 24 22 24 29 32 34 36
2 3 2 3 3 2 0 1 3 7 6 6 8 9 8 7 10 12 7 1 4 6 6 7 10 11 11 9 7 6 6 8 10 10 12 17 15 8 3 4 4 3 6 6 5 5 8 14 8 4 6 8 6 4 3 5 0 4 3 6 6 6 5 4 1 3 5 5 4 4 3 5 4 3 6 6 4 5 7 9 19 27 23 21 24 29 32 33
2 2 2 2 3 3 2 1 4 6 5 5 7 8 9 9 10 10 4 2 3 4 2 2 6 6 6 9 10 3 1 4 9 12 14 17 14 7 2 2 2 3 5 3 2 2 4 7 5 6 7 6 5 3 4 5 4 2 5 6 6 5 3 3 2 3 2 3 4 2 2 5 6 4 7 6 4 7 7 6 16 24 21 21 25 31 35 33
1 1 1 1 2 2 2 1 3 5 4 6 8 11 14 12 10 7 2 4 3 3 2 2 4 3 3 8 10 4 1 3 5 9 13 13 11 8 5 4 1 3 2 4 2 3 2 2 3 5 4 5 4 2 4 5 7 3 6 5 4 2 2 3 3 4 3 3 4 4 3 3 4 5 7 5 4 8 9 7 12 18 20 25 29 32 35 34
2 1 1 1 2 2 2 2 1 4 5 8 10 13 13 8 6 3 3 3 2 2 2 3 4 3 2 6 9 6 4 4 6 9 11 10 9 6 4 5 3 4 2 4 1 6 2 2 4 5 4 3 3 6 6 6 5 6 6 4 3 2 3 2 5 3 1 2 5 6 1 0 5 6 5 2 3 8 10 9 10 15 20 27 31 33 34 34
2 1 1 1 3 3 2 2 0 3 6 10 12 11 6 2 3 2 4 1 2 1 2 3 2 4 5 5 6 7 7 6 4 10 13 11 10 7 4 5 5 3 3 5 4 6 3 7 8 6 5 5 5 6 6 8 3 6 5 3 1 3 3 3 5 3 3 4 4 7 1 1 4 7 5 1 3 6 8 8 9 15 22 28 33 35 34 32
1 1 1 1 2 1 1 1 2 5 8 12 12 8 5 4 2 4 2 1 2 1 3 2 2 4 5 2 3 5 7 7 6 10 11 8 8 9 6 4 3 1 2 2 2 6 6 7 7 4 5 7 6 6 6 8 6 2 3 2 4 6 4 3 3 4 5 3 6 5 2 2 3 6 5 3 4 5 6 8 9 11 19 28 33 34 34 33
1 1 1 2 2 3 3 4 5 6 8 10 9 6 5 3 3 5 1 3 1 2 1 1 3 1 5 3 2 4 3 4 4 7 6 4 4 5 2 0 1 3 4 4 2 5 5 3 3 4 7 7 5 4 3 4 3 4 4 2 3 4 5 5 4 4 3 4 6 2 4 5 1 6 6 5 6 7 6 8 8 7 16 27 30 30 33 35
1 1 2 2 2 3 5 6 5 6 7 7 7 5 2 3 3 1 3 2 1 3 2 2 2 1 3 5 3 5 4 3 5 7 6 4 3 3 2 3 2 3 3 4 3 5 4 3 3 3 7 8 5 2 3 4 4 6 4 5 4 2 4 4 4 2 1 6 6 2 4 3 4 8 8 8 10 9 7 10 10 10 18 27 30 30 33 36
3 2 3 2 3 5 7 5 5 7 7 7 7 3 4 5 0 3 3 2 1 3 4 4 4 4 1 2 2 4 4 4 6 8 6 4 4 4 3 4 6 5 2 4 2 2 4 6 4 3 3 4 6 3 2 3 2 4 4 4 4 2 2 2 4 2 2 6 6 3 3 2 4 6 7 8 10 11 11 15 13 12 13 22 29 30 31 32
3 3 3 3 4 7 10 7 5 7 9 9 5 3 6 3 3 3 2 2 2 3 3 3 5 6 4 1 3 3 3 5 5 7 5 3 3 3 4 4 5 5 2 1 1 2 1 5 3 2 3 3 4 5 6 5 2 4 5 5 4 4 4 3 3 3 4 4 5 3 1 3 2 4 6 7 9 7 10 16 8 1 3 10 19 22 24 26
2 3 3 4 4 7 10 9 7 8 10 9 4 5 4 1 4 2 2 3 2 3 4 4 5 5 5 3 4 6 5 5 2 3 4 4 3 4 4 5 6 5 4 1 3 3 3 5 6 4 3 3 2 3 4 6 1 3 2 5 2 4 5 3 3 5 4 1 3 3 2 4 4 6 8 7 9 7 11 20 17 13 17 16 7 0 9 17
3 2 3 4 4 5 9 11 9 6 8 6 5 3 2 4 3 1 1 3 2 3 5 6 5 4 4 4 4 8 9 5 4 4 0 2 3 4 4 4 6 7 6 4 3 2 4 5 6 3 3 6 5 5 0 4 2 2 1 3 4 3 6 2 3 1 3 1 4 2 2 5 3 5 7 8 10 10 11 14 15 18 28 29 25 21 13 3
5 4 2 3 5 5 8 12 8 4 6 5 5 1 4 3 1 1 1 2 1 2 4 3 3 2 2 4 3 6 8 6 5 5 4 3 3 3 2 2 1 3 7 6 3 2 5 3 7 2 3 2 4 6 4 1 4 2 1 5 4 2 4 1 2 3 3 1 5 2 3 4 2 3 6 9 10 9 8 9 13 19 25 25 25 28 26 22
7 6 4 4 6 7 10 13 7 2 3 5 2 3 3 1 2 2 2 2 1 3 4 2 2 1 1 2 3 3 5 4 5 5 3 3 3 2 4 3 4 6 3 6 4 0 4 1 7 3 0 3 6 7 4 6 6 5 1 3 1 1 1 1 1 1 1 2 4 4 4 3 2 4 2 6 7 7 8 10 12 15 20 22 25 28 30 30
8 7 4 4 5 7 8 8 5 1 3 3 0 3 2 1 1 3 5 4 1 3 3 2 2 2 2 2 3 3 2 1 3 4 2 2 4 3 6 4 3 11 12 5 5 0 3 3 4 5 1 1 5 5 1 5 4 3 2 3 1 2 4 3 2 2 3 3 2 3 4 2 4 5 3 2 3 7 8 9 9 10 17 22 25 29 30 31
8 6 2 4 6 6 7 5 3 1 2 1 3 3 2 2 2 6 10 8 1 2 0 3 2 1 3 2 2 3 1 0 1 2 2 2 4 4 5 4 3 7 11 10 5 1 4 3 3 6 4 1 2 0 4 2 1 3 4 5 4 2 0 1 1 2 4 3 3 2 3 4 5 4 6 5 3 7 8 7 6 9 16 20 23 27 29 29
7 3 1 4 7 9 11 7 2 1 3 1 2 1 4 5 5 10 15 13 5 1 2 2 1 1 3 1 2 3 2 2 1 0 2 2 3 3 4 6 4 4 6 8 5 2 1 2 3 2 3 1 4 4 3 5 4 3 1 2 3 3 1 1 3 3 1 3 4 4 4 6 6 4 5 6 4 4 7 9 7 10 15 18 21 25 26 27
7 2 0 4 7 10 11 5 2 1 2 2 3 1 5 8 6 8 15 15 8 1 1 2 2 1 2 1 1 2 3 3 2 1 1 2 0 3 4 9 9 4 4 2 2 2 3 3 3 1 3 4 7 7 2 2 4 4 3 1 0 1 2 1 3 4 2 1 1 3 3 6 6 4 5 6 5 6 9 10 9 12 16 18 21 23 24 26
10 6 1 4 8 12 7 3 4 4 2 4 5 4 6 6 5 6 9 10 6 2 2 2 1 2 2 0 1 3 3 2 3 2 2 2 1 2 6 13 13 6 3 2 3 1 1 4 3 2 3 4 7 6 5 6 5 3 2 1 3 3 3 3 4 3 2 3 1 2 3 6 5 2 3 7 8 8 10 11 11 14 16 18 20 21 22 24
12 9 2 2 9 9 3 1 3 3 3 5 5 5 6 5 5 6 5 6 6 1 1 1 0 1 1 1 2 2 2 1 3 4 2 2 3 4 12 19 15 7 2 3 2 1 1 1 3 2 4 5 7 6 6 6 4 2 2 1 2 3 2 1 1 1 0 3 4 4 4 6 4 4 4 6 6 7 6 8 9 11 15 18 19 19 18 19
9 6 4 6 7 7 8 4 3 1 3 5 4 5 6 4 6 9 6 6 6 1 1 1 0 1 1 2 3 1 1 2 2 4 3 3 4 5 14 20 14 6 5 5 6 6 2 1 3 2 2 3 2 2 3 3 3 2 3 2 1 2 2 2 2 3 0 3 1 4 4 7 7 7 7 8 6 4 4 6 7 10 13 16 17 17 16 15
5 2 5 8 6 7 8 9 10 5 3 4 4 5 4 2 6 9 6 4 7 8 3 2 1 2 2 4 3 2 2 1 2 3 3 4 3 5 15 17 10 7 7 6 3 3 3 1 2 6 6 6 5 6 5 2 2 4 6 8 4 4 5 4 3 1 4 2 2 4 6 7 11 9 6 8 9 8 8 11 12 14 16 18 17 18 17 16
3 1 2 5 6 6 7 10 13 7 4 3 1 3 4 3 4 5 4 2 8 11 4 2 6 5 3 3 2 2 4 5 5 4 3 4 3 6 14 12 7 8 8 8 8 4 4 1 2 6 6 7 8 7 6 3 5 6 8 12 8 3 5 1 3 5 4 2 4 7 6 4 10 9 5 6 8 6 7 11 14 16 19 20 19 18 17 16
3 1 3 3 3 2 3 8 11 9 7 5 1 3 3 4 4 2 3 3 7 10 4 4 9 9 5 3 2 1 4 4 4 4 3 4 5 6 10 8 7 14 13 8 7 4 4 3 4 5 5 6 8 8 7 6 6 7 8 10 8 2 3 5 7 6 6 5 7 8 5 6 8 7 6 6 6 4 7 11 14 18 20 20 20 19 18 17
4 1 3 5 3 2 3 8 11 8 6 6 3 2 3 3 4 3 3 3 4 7 7 4 6 8 7 4 3 3 2 2 2 4 3 4 5 4 5 5 5 13 14 8 6 4 2 3 4 4 4 4 6 7 8 7 6 8 9 7 4 5 7 6 6 6 7 7 9 7 5 7 6 5 5 5 7 9 11 15 17 19 19 19 19 17 16 16
7 4 6 7 5 4 6 8 9 6 5 5 4 3 4 4 4 4 3 3 1 3 6 5 3 5 5 5 5 4 2 3 3 3 2 3 4 2 2 3 4 9 10 4 4 6 4 3 3 1 2 4 4 6 7 7 7 9 8 2 2 4 6 5 6 5 4 5 6 3 5 6 5 5 3 5 11 13 14 15 16 17 15 15 15 12 12 13
4 4 8 7 4 5 7 7 6 3 3 5 4 4 5 5 6 6 3 3 7 4 3 3 2 2 4 5 5 4 4 4 5 5 4 2 3 4 4 3 4 7 7 2 2 4 4 3 3 3 2 4 4 6 7 4 5 9 6 1 2 8 6 4 5 3 2 4 2 1 4 5 4 5 3 4 10 12 10 11 13 12 11 10 9 9 10 12
3 3 5 5 2 4 6 5 4 4 3 4 5 5 4 6 10 9 3 3 7 7 4 4 5 3 3 3 1 3 4 3 3 5 6 7 9 10 11 12 10 7 4 2 2 1 1 1 2 1 3 5 4 5 3 3 4 9 7 5 6 7 4 2 2 1 2 3 3 3 5 5 3 3 4 5 7 7 7 9 10 9 6 5 7 10 12 14
Wind_Direction
341 339 337 342 350 354 359 0 0 4 8 6 1 1 336 270 234 225 217 207 204 211 217 230 244 260 270 275 275 272 270 267 258 255 259 230 188 185 179 177 175 169 188 222 228 228 206 191 170 163 187 234 263 266 248 253 259 251 199 178 228 243 227 211 230 282 308 298 304 358 96 112 108 103 108 108 103 112 125 132 138 137 147 154 154 157 155 151
345 345 343 347 354 356 360 359 2 9 10 12 14 13 11 17 226 216 196 192 199 206 208 225 239 266 276 278 281 281 283 284 272 262 260 212 193 190 178 172 169 169 193 222 237 235 209 189 163 171 259 256 247 251 253 256 236 208 156 183 224 224 224 199 260 288 296 283 284 327 112 119 123 125 116 112 101 103 100 107 119 121 133 144 148 152 153 154
347 349 347 349 354 356 0 1 6 12 13 16 21 25 36 68 97 153 171 182 192 199 199 207 242 275 279 281 291 295 300 296 282 275 272 221 205 196 190 178 164 177 220 243 245 230 215 204 196 296 292 265 244 247 257 263 257 217 186 222 240 236 282 292 295 293 316 324 304 359 108 133 131 133 125 125 122 113 117 126 120 123 134 143 148 153 156 157
349 354 357 356 357 359 3 6 8 11 16 18 22 30 47 75 101 126 145 166 183 185 172 178 256 281 283 291 300 303 313 311 296 345 116 205 192 201 203 180 169 204 242 253 243 218 209 212 230 291 294 264 249 250 251 239 248 211 180 206 233 246 296 276 281 287 326 11 356 7 53 126 132 132 134 131 119 119 147 147 143 141 145 150 154 160 161 160
357 2 8 7 4 3 5 9 10 13 15 19 24 29 51 85 110 130 147 162 174 169 152 209 268 286 291 299 296 297 334 353 348 74 117 156 159 206 212 188 194 223 245 249 233 206 202 209 244 276 267 251 246 247 248 234 234 258 250 237 232 234 258 266 270 276 294 21 13 6 27 96 112 116 140 137 131 180 167 156 153 153 156 160 162 164 164 164
9 12 15 16 11 11 11 12 13 14 15 17 21 25 50 90 119 139 156 162 167 156 155 224 264 290 295 293 292 304 331 341 303 28 102 175 245 231 219 208 215 234 242 237 215 195 198 208 244 260 233 240 221 209 243 242 229 238 269 259 248 238 234 267 272 270 267 49 33 2 18 23 68 88 134 134 152 176 166 159 160 161 164 165 165 166 166 169
20 23 27 28 24 23 19 17 15 15 16 15 17 21 33 56 116 150 163 156 153 136 152 207 229 293 313 301 305 308 296 292 302 332 42 286 315 258 185 199 215 226 216 197 188 179 195 214 235 250 247 259 231 224 246 252 231 215 253 258 253 245 238 254 252 240 279 69 64 2 24 30 33 77 114 105 153 173 168 162 161 161 162 163 164 166 170 174
31 36 41 41 39 36 29 25 20 18 18 16 15 15 20 19 31 168 163 152 141 126 148 145 103 334 7 311 315 307 294 307 330 317 294 300 323 139 150 171 186 192 179 172 173 173 205 229 247 262 250 241 238 235 247 261 242 219 238 246 247 246 234 230 213 181 278 70 72 23 18 8 23 81 92 75 138 161 167 160 155 155 157 161 165 168 172 173
45 50 53 51 46 40 33 27 20 18 17 15 13 9 11 8 354 331 173 147 131 132 149 134 115 90 106 285 313 313 304 6 35 9 316 257 129 146 152 165 167 162 164 166 174 187 219 252 275 272 254 260 259 257 266 268 244 225 228 237 247 230 194 186 177 155 165 102 78 40 341 336 27 80 79 113 139 148 156 153 153 154 157 164 166 169 174 173
57 60 59 53 46 38 30 23 18 15 13 13 11 5 2 355 348 337 289 155 147 159 164 159 147 138 209 271 309 309 353 66 36 16 31 157 135 144 138 137 145 148 159 169 190 214 252 294 312 301 280 272 268 285 292 245 262 280 242 229 233 196 177 169 161 144 145 134 86 75 302 317 8 76 91 150 143 144 147 147 155 158 160 168 167 170 177 176
62 62 57 50 43 36 29 22 16 12 11 11 8 3 358 348 339 325 305 236 192 185 183 174 162 183 235 268 255 259 36 80 24 11 74 151 134 132 124 124 139 154 187 205 232 268 297 311 325 311 280 268 301 319 307 275 306 303 255 211 225 164 171 170 154 146 143 150 134 112 313 315 353 77 150 158 149 147 148 150 160 165 168 171 168 172 179 178
63 59 53 47 40 35 30 23 18 15 16 15 10 6 358 348 336 314 302 263 224 205 204 181 184 213 259 269 256 262 3 61 339 0 74 147 142 137 129 185 275 299 292 281 287 308 315 318 323 299 274 290 329 333 316 317 315 303 246 176 321 21 33 214 173 157 144 153 185 129 18 323 328 231 163 156 157 154 155 161 168 173 173 171 171 175 179 178
61 57 50 43 39 35 31 26 21 18 20 21 19 16 11 6 357 314 266 259 236 218 207 196 238 264 287 276 267 226 223 257 268 264 138 165 181 169 108 313 308 311 305 299 304 316 313 314 314 298 300 317 317 317 310 313 311 301 338 80 342 12 340 246 209 174 150 160 180 147 6 284 278 256 227 160 166 162 159 169 174 175 175 173 175 177 179 180
57 53 45 39 37 35 32 28 25 22 21 21 19 18 19 18 15 355 274 264 237 234 202 300 323 315 299 279 253 174 192 220 236 224 222 254 249 208 111 56 315 306 297 293 296 301 299 306 317 309 299 296 306 315 316 319 322 323 355 19 24 1 286 262 218 177 167 190 173 144 188 250 266 267 262 227 176 170 168 176 177 175 177 177 178 180 182 184
51 44 36 33 33 34 30 28 29 29 25 21 19 15 16 19 23 31 311 292 167 155 122 9 352 328 301 280 235 201 197 212 228 229 226 242 266 245 181 156 240 285 268 273 291 300 298 300 313 312 297 306 327 331 333 335 343 7 17 324 337 216 267 297 275 184 185 198 167 146 185 251 271 271 263 282 196 180 180 182 179 177 178 180 181 184 185 184
33 30 28 25 24 27 25 24 24 27 28 23 19 11 5 10 14 14 298 281 124 147 131 24 353 334 306 287 251 215 212 225 231 232 233 245 257 239 216 265 265 268 266 276 298 300 293 295 301 295 293 315 1 34 13 1 345 1 83 263 283 258 296 320 305 220 191 152 168 174 176 248 268 241 247 281 213 189 184 182 183 180 179 182 184 185 185 180
13 13 18 17 16 15 14 18 14 13 21 20 16 10 356 348 355 4 329 301 51 170 175 220 291 300 280 264 262 223 214 230 229 220 224 239 246 235 251 273 271 265 267 276 280 280 280 283 277 271 290 339 65 76 31 355 319 323 5 340 263 235 287 301 301 264 179 155 189 197 184 203 244 238 249 256 204 192 184 176 181 182 180 183 185 184 183 180
356 349 355 358 2 358 358 6 3 359 7 16 17 13 4 343 332 343 344 346 3 181 207 224 244 305 274 239 268 281 235 211 205 208 210 221 232 242 256 268 280 267 256 262 264 263 266 276 60 342 345 5 35 81 93 253 220 251 332 22 308 279 208 260 280 258 172 168 182 185 204 230 261 292 283 193 178 180 178 169 176 182 182 184 185 184 184 182
341 332 319 313 329 336 344 354 358 1 7 17 15 14 22 9 337 294 335 332 242 216 233 223 220 281 282 270 286 309 249 183 173 204 208 212 224 246 257 260 275 260 236 256 269 246 216 281 27 47 301 298 272 147 171 208 184 195 208 155 247 316 281 260 271 281 180 163 165 174 204 227 250 286 279 214 166 159 173 180 182 184 186 187 187 187 185 184
331 321 305 292 307 319 336 355 27 42 21 22 14 18 34 22 12 265 315 298 268 270 283 270 263 269 280 291 288 250 171 177 199 234 222 217 223 240 245 243 269 270 209 171 239 265 173 202 262 215 224 227 235 209 178 180 167 161 113 110 246 17 309 284 298 327 359 116 107 171 209 247 248 266 270 264 256 201 199 202 195 187 188 190 189 189 188 190
336 328 317 300 299 315 336 6 76 65 23 22 21 26 24 11 13 321 316 300 289 284 278 274 271 270 276 286 271 228 223 203 231 254 238 223 218 226 227 220 250 312 251 192 189 304 136 191 244 226 220 208 213 201 153 131 110 110 92 41 328 34 308 295 304 324 6 101 335 31 45 297 278 276 277 277 265 240 229 219 210 196 192 194 194 193 193 195
345 341 338 329 320 335 357 20 46 29 15 11 13 20 12 15 358 309 317 303 295 287 274 269 266 265 267 270 264 260 265 251 246 252 230 217 209 208 207 184 186 241 271 183 116 338 254 236 245 232 216 173 175 167 122 108 94 91 88 68 323 303 306 309 317 326 13 85 279 4 46 293 276 267 257 246 231 243 241 227 223 211 196 196 197 197 196 195
357 359 4 31 46 44 61 26 18 17 10 1 1 4 0 14 322 308 309 290 292 290 277 264 259 260 258 267 270 245 243 249 257 244 223 216 205 204 207 173 191 247 331 121 168 189 222 242 245 231 182 141 164 152 79 68 70 90 92 80 292 276 62 316 305 326 358 41 228 62 25 293 286 293 267 229 216 231 245 239 239 233 214 204 202 201 198 194
4 18 45 106 120 113 87 31 5 352 352 11 19 7 356 346 321 317 308 267 288 290 271 259 261 263 259 267 268 229 228 241 250 237 216 213 199 194 215 200 181 241 259 213 185 190 230 248 247 177 165 175 179 163 89 79 347 316 161 158 241 260 208 199 262 326 351 336 10 67 15 319 295 299 289 270 244 237 242 242 249 248 236 220 208 203 202 198
356 22 83 135 167 181 74 23 9 358 3 38 26 3 356 337 316 321 325 297 295 288 273 260 253 254 248 237 226 217 222 238 255 259 229 212 195 178 234 219 184 241 251 227 190 199 245 253 241 152 185 188 165 190 165 139 270 309 248 203 213 237 235 209 248 22 30 335 313 57 20 300 302 285 261 274 317 296 258 233 245 247 237 225 213 204 203 202
340 16 73 136 190 225 259 344 26 32 49 34 359 335 324 307 306 317 332 49 331 278 274 248 221 226 218 199 203 206 6 261 261 254 225 207 197 182 254 254 185 248 247 221 187 207 259 253 204 167 188 171 139 192 205 147 121 298 251 204 201 217 235 235 158 110 120 253 280 60 146 258 306 295 258 272 307 289 278 238 245 249 233 218 214 208 206 204
316 350 44 90 164 217 224 178 41 46 31 343 326 318 308 292 296 310 340 37 341 256 226 203 193 210 209 198 202 176 58 250 209 201 198 196 199 188 220 265 314 269 250 59 16 260 290 327 122 132 142 128 119 196 218 137 114 241 244 193 207 236 249 244 138 139 199 233 319 14 122 230 291 267 257 278 298 287 285 265 251 248 229 213 211 209 210 211
302 329 39 90 125 125 137 163 81 28 346 318 316 322 317 292 282 304 81 65 297 244 224 221 206 223 209 194 201 181 174 180 150 176 189 191 198 179 207 243 217 248 244 91 301 271 272 243 193 143 122 138 173 213 207 139 129 245 233 188 222 198 170 158 101 115 174 70 323 317 61 220 277 272 281 287 275 285 282 272 256 243 226 212 209 208 209 211
290 314 358 158 141 109 112 158 14 340 307 314 327 332 336 313 291 36 83 100 268 279 215 224 235 224 203 192 211 203 199 210 193 192 187 182 199 204 230 233 196 233 244 139 192 257 251 239 225 151 134 193 213 222 179 141 198 242 190 164 22 67 112 105 97 98 46 49 290 276 288 50 276 276 295 305 257 267 265 268 260 240 226 216 213 211 209 207
293 314 312 264 192 181 165 207 302 318 312 321 329 328 324 313 357 61 55 245 249 252 181 188 260 203 172 147 253 225 211 233 224 192 190 188 201 213 226 236 194 133 333 54 191 244 267 265 244 171 167 195 196 212 176 168 210 213 138 149 32 22 19 37 69 85 56 351 276 258 168 116 302 280 257 230 241 251 258 277 272 238 223 220 219 216 214 212
314 332 312 297 268 256 289 310 313 334 336 334 333 324 319 322 64 87 199 246 236 268 173 197 273 192 156 167 249 240 219 238 207 176 200 217 198 210 199 220 349 46 7 345 306 288 318 304 248 210 201 182 161 225 213 176 178 92 81 106 60 344 360 20 356 43 72 261 270 256 132 124 255 268 256 251 270 274 260 265 270 225 210 219 223 221 218 218
16 15 359 329 319 330 334 325 331 1 1 357 349 331 1 38 39 124 236 300 319 275 344 359 294 311 210 208 216 226 226 232 194 175 193 197 187 216 181 176 173 54 335 280 288 325 326 259 272 281 217 183 141 243 303 5 52 84 78 78 90 330 7 13 315 355 182 246 260 215 148 147 234 253 265 271 279 281 255 240 238 215 208 214 220 223 221 221
59 60 45 42 57 29 11 358 354 12 19 11 354 344 76 76 311 237 256 331 324 284 351 358 314 327 307 233 254 237 227 228 204 189 190 169 181 239 264 211 170 131 224 240 246 324 328 299 310 359 266 202 142 161 259 320 54 124 137 112 122 124 59 305 277 287 247 263 275 232 172 232 277 265 245 236 257 276 284 277 252 225 223 220 219 220 220 221
73 75 43 26 41 27 21 20 5 15 18 4 360 50 64 60 251 271 311 306 316 331 352 342 323 345 12 356 292 297 288 262 219 177 174 150 171 240 269 241 190 146 146 223 242 189 209 301 287 179 250 218 167 179 182 169 142 174 166 128 133 146 147 210 223 214 238 265 293 314 204 201 235 268 248 249 276 289 320 330 331 203 296 251 229 219 211 212
53 59 30 1 5 16 18 13 10 17 2 351 20 71 76 230 252 274 294 276 302 336 334 348 14 11 352 329 313 347 356 301 284 137 168 172 178 209 213 219 206 167 132 157 245 194 172 243 250 235 216 122 25 295 165 127 76 258 140 101 143 172 157 184 193 183 180 229 295 315 261 213 206 270 293 327 342 4 20 14 26 50 45 38 29 190 207 213
332 359 29 11 356 9 8 360 11 18 343 355 61 72 183 211 239 213 273 313 328 340 346 358 26 32 340 327 334 355 2 339 342 19 255 208 215 221 209 223 213 186 167 172 224 187 158 239 267 296 69 83 33 339 328 149 191 242 132 154 220 157 133 174 265 217 108 147 262 262 260 293 326 301 317 9 24 27 32 27 32 53 59 55 50 50 46 8
337 323 327 356 353 357 344 337 351 4 341 33 90 214 219 212 339 63 325 334 12 21 43 29 339 357 346 328 322 347 351 343 354 357 323 296 295 289 294 311 331 185 188 178 214 195 144 241 288 352 60 29 19 22 9 41 105 86 270 227 233 58 93 114 311 340 44 234 270 282 233 279 336 287 324 18 40 31 22 28 32 44 57 55 48 51 49 41
343 340 316 320 334 328 315 312 311 303 352 51 88 258 217 166 14 59 357 331 72 59 71 122 273 316 22 318 293 328 345 341 353 345 318 315 301 330 8 338 353 347 285 167 153 221 123 215 291 322 143 298 10 44 7 353 57 91 264 251 191 84 291 357 52 280 277 246 280 307 269 249 218 225 334 25 41 40 26 32 36 33 39 39 34 38 41 39
333 338 338 341 337 325 312 298 281 298 27 56 271 268 233 213 301 35 23 7 90 89 69 190 229 346 335 268 259 299 348 325 335 332 307 318 305 340 22 5 326 342 350 64 120 270 90 126 275 301 273 290 12 46 23 332 11 81 23 350 54 155 188 198 188 171 179 207 242 297 309 289 235 217 150 90 39 60 55 47 51 40 36 36 30 28 30 30
339 333 6 19 3 1 352 320 283 37 72 175 216 241 273 276 317 8 24 27 64 115 139 216 190 282 280 275 286 293 335 185 312 312 258 302 329 331 2 4 324 343 9 42 62 4 55 98 231 291 320 347 340 114 142 129 25 24 360 342 343 339 228 223 266 140 139 168 186 206 274 272 252 219 157 150 80 67 73 66 65 53 45 40 30 24 21 20
8 352 43 17 12 8 359 346 313 105 121 221 259 267 324 334 344 357 7 10 5 172 218 222 132 236 244 300 327 293 327 323 294 312 260 321 6 316 327 358 358 350 23 39 33 19 51 112 179 279 327 303 264 250 162 140 150 147 198 274 295 302 336 2 290 289 104 148 169 169 222 256 255 216 157 135 102 79 80 77 64 44 39 33 25 19 13 10
16 346 290 26 12 350 344 347 338 26 113 16 336 347 347 344 345 353 358 357 356 27 25 24 55 332 253 231 322 316 358 323 283 323 270 282 287 231 312 356 359 10 77 73 310 219 147 108 109 224 242 245 272 279 311 81 134 143 153 178 51 24 64 93 257 274 306 245 179 140 214 255 256 209 147 101 85 84 76 75 63 37 28 20 13 9 3 0
352 331 9 55 356 340 344 7 349 353 44 356 342 356 1 351 336 348 1 355 345 28 39 22 72 351 322 355 356 353 14 325 269 279 259 284 316 272 351 1 349 344 73 76 296 273 85 68 65 308 286 311 314 313 352 27 59 73 14 44 84 81 101 162 209 213 227 253 193 123 249 265 272 242 126 89 86 78 51 39 35 25 17 13 10 7 3 358
338 328 350 24 342 347 29 60 337 344 339 339 351 355 353 358 350 347 355 337 316 236 118 307 346 15 323 23 38 335 1 27 292 308 313 287 300 341 15 16 2 335 249 213 206 149 323 358 83 15 326 335 344 345 348 356 24 43 295 296 81 79 88 164 266 58 20 244 166 144 240 257 268 301 9 57 87 100 58 18 22 25 20 17 14 12 9 359
342 323 303 320 351 53 85 83 58 39 333 345 357 339 338 354 348 339 325 311 319 1 133 256 56 72 352 31 33 295 207 146 258 303 330 312 294 345 7 8 7 350 282 236 171 143 172 216 131 124 250 257 288 280 267 289 315 309 263 260 50 61 53 53 53 64 270 264 166 151 239 270 288 317 359 14 7 18 14 8 36 49 40 31 27 26 22 14
8 349 311 322 359 60 73 60 52 48 340 355 347 319 327 322 324 337 333 325 9 20 351 269 357 36 23 27 16 325 340 1 312 325 350 334 313 338 347 352 12 24 354 340 2 98 99 73 153 157 182 200 196 214 222 216 283 287 285 292 304 98 93 75 74 153 201 243 296 231 227 275 294 309 357 1 343 336 335 354 25 47 47 42 41 38 33 29
27 63 349 337 337 359 21 28 31 20 324 332 299 269 305 305 305 341 333 330 37 35 5 341 24 14 349 12 23 332 341 347 356 10 4 344 317 319 334 344 21 27 6 343 341 20 88 343 249 167 187 202 188 207 228 220 250 259 271 285 287 121 116 178 240 226 174 124 288 252 202 238 281 298 341 338 322 319 334 1 26 40 38 33 30 25 21 18
43 55 51 29 321 319 4 350 351 352 331 321 262 230 289 297 283 308 315 323 37 43 32 13 18 9 354 25 100 37 355 360 3 356 351 350 337 335 339 337 9 20 12 346 346 51 122 261 251 190 217 217 189 204 217 211 240 250 246 264 275 260 225 232 232 213 153 154 250 250 207 220 266 301 330 327 330 351 14 28 35 32 25 20 16 11 6 2
41 38 27 20 348 260 292 320 332 348 340 330 328 283 291 297 288 308 357 359 17 38 57 58 355 355 6 28 88 83 23 24 343 330 347 354 337 347 348 312 339 18 17 352 343 29 103 265 255 222 247 239 210 219 220 214 236 252 249 244 231 237 240 234 235 215 180 201 237 250 257 248 252 290 321 7 46 53 45 37 27 21 17 10 5 3 358 354
36 24 348 347 341 325 331 340 347 354 350 354 356 319 330 355 341 325 1 50 41 15 54 75 359 354 21 34 65 99 147 153 169 240 279 358 343 338 340 302 316 351 359 349 338 1 4 276 262 286 318 291 264 244 234 229 235 249 257 219 156 259 264 245 239 217 201 241 247 247 282 271 262 282 300 66 63 55 45 31 18 13 9 359 357 359 353 345
62 49 6 347 326 344 357 354 352 5 11 9 1 333 343 358 347 326 306 88 96 100 94 106 107 15 31 47 78 140 204 178 172 229 258 267 292 285 272 288 314 323 334 342 310 351 358 296 313 24 333 284 267 252 253 272 288 274 268 173 232 272 272 242 241 225 215 257 261 275 275 259 265 295 308 55 57 52 40 17 6 5 359 352 357 1 349 339
88 95 23 12 325 345 13 0 356 38 32 349 348 345 345 345 350 356 347 21 59 83 87 86 105 79 16 6 106 189 225 239 247 273 282 276 283 288 285 286 286 274 275 296 266 218 166 262 314 2 284 275 260 252 267 30 336 282 253 193 209 243 250 268 308 299 192 187 168 201 236 236 251 321 348 7 28 39 23 2 354 351 0 17 12 360 348 339